Location: Bonnesvalyn
(49.1218°N, 3.3177°E)
Time: 14:12:18
(UTC+00:00)

CZ-4 R/B - Pass Details

Date: 09 February 2023
Orbit: 525 x 587 km, 97.7° (Epoch: 21 March)

Event Time Altitude Azimuth Distance (km) Brightness Sun altitude
Rises 19:25:51 0° 188° (S) 2,781 4.9 -24.8°
Reaches altitude 10° 19:28:10 10° 197° (SSW) 1,878 4.1 -25.2°
Maximum altitude 19:31:53 34° 263° (W) 954 3.0 -25.8°
Drops below altitude 10° 19:35:34 10° 329° (NNW) 1,859 4.5 -26.4°
Sets 19:37:51 0° 339° (NNW) 2,748 5.3 -26.7°
